Starlink 32512

operational
NORAD ID: 62027 Int'l Des: 2024-213 Owner: SPXS Country: US Constellation: starlink
LEOCIRCULAR

About Starlink 32512

Description loading...

Live Position

Loading 3D Globe...

Upcoming Passes

Altitude History

Altitude vs Time

uPlot chart will show altitude changes over time

Two-Line Element Set

1 62027U 24213V 25259.72931909 .00026590 00000-0 90674-3 0 9993
2 62027 53.1565 255.9437 0002135 86.3060 273.8185 15.30197075 46522
Epoch: Sep 16, 2025 • Age: 30 hours

Current Status

Altitude 490.8 km
Velocity 7.62 km/s
Sub-Earth Point -43.29°S, 136.94°W
Launch Date Nov 18, 2024
Age 0.8 years
Type internet

Technical Details

Classification Payload
Mass 730.00 kg
Dry Mass 700.00 kg
Total Mass 730.00 kg
Length 0.30 m
Diameter 4.10 m
Span 29.00 m
Shape Box + pan
Manufacturer SPXS
Bus Type Starlink V2M
Phase Status In Orbit
Owner/State SPXS/US

Large Constellations

Loading constellations...